When you browse on this site, cookies collect data to enhance your experience and personalize the content and advertising you see.
Visit our Privacy Policy to learn more. By continuing to use the site, you agree to this use of cookies and data.
  • In Hungary
  • List of Countries
  • For 7 days
  • Water Temperature
  • Weather Map
  • News
  • Weather Widgets
  • user-avatar
    Login

    Hourly Weather Barmer

    Today, 19 February, Wednesday

    Time Temperature Precipitation Wind Pressure Humidity
    00:00 +25°C° 0 mm 2 mps 740 mmHg 13%
    01:00 +25°C° 0 mm 2 mps 740 mmHg 13%
    02:00 +24°C° 0 mm 3 mps 739 mmHg 14%
    03:00 +24°C° 0 mm 2 mps 739 mmHg 16%
    04:00 +23°C° 0 mm 2 mps 739 mmHg 17%
    05:00 +21°C° 0 mm 2 mps 739 mmHg 21%
    06:00 +22°C° 0 mm 3 mps 739 mmHg 20%
    07:00 +24°C° 0 mm 3 mps 740 mmHg 19%
    08:00 +24°C° 0 mm 3 mps 740 mmHg 18%
    09:00 +26°C° 0 mm 4 mps 740 mmHg 16%
    10:00 +28°C° 0 mm 5 mps 740 mmHg 14%
    11:00 +30°C° 0 mm 5 mps 740 mmHg 11%
    12:00 +32°C° 0 mm 6 mps 739 mmHg 12%
    13:00 +33°C° 0 mm 6 mps 739 mmHg 12%
    14:00 +34°C° 0 mm 7 mps 738 mmHg 12%
    15:00 +34°C° 0 mm 6 mps 737 mmHg 11%
    16:00 +34°C° 0 mm 5 mps 737 mmHg 10%
    17:00 +34°C° 0 mm 5 mps 736 mmHg 9%
    18:00 +32°C° 0 mm 5 mps 737 mmHg 11%
    19:00 +29°C° 0 mm 4 mps 737 mmHg 13%
    20:00 +27°C° 0 mm 4 mps 737 mmHg 15%
    21:00 +26°C° 0 mm 4 mps 737 mmHg 18%
    22:00 +26°C° 0 mm 4 mps 738 mmHg 21%
    23:00 +25°C° 0 mm 4 mps 738 mmHg 24%

    Tomorrow, 20 February, Thursday

    Time Temperature Precipitation Wind Pressure Humidity
    00:00 +23°C° 0 mm 4 mps 737 mmHg 29%
    01:00 +22°C° 0 mm 4 mps 737 mmHg 34%
    02:00 +21°C° 0 mm 4 mps 737 mmHg 39%
    03:00 +20°C° 0 mm 3 mps 737 mmHg 42%
    04:00 +19°C° 0 mm 2 mps 737 mmHg 46%
    05:00 +19°C° 0 mm 1 mps 737 mmHg 50%
    06:00 +19°C° 0 mm 2 mps 737 mmHg 47%
    07:00 +19°C° 0 mm 2 mps 738 mmHg 44%
    08:00 +20°C° 0 mm 2 mps 739 mmHg 42%
    09:00 +23°C° 0 mm 2 mps 739 mmHg 36%
    10:00 +25°C° 0 mm 2 mps 739 mmHg 31%
    11:00 +26°C° 0 mm 2 mps 740 mmHg 26%
    12:00 +28°C° 0 mm 2 mps 739 mmHg 23%
    13:00 +29°C° 0 mm 2 mps 738 mmHg 19%
    14:00 +31°C° 0 mm 2 mps 738 mmHg 16%
    15:00 +31°C° 0 mm 3 mps 738 mmHg 15%
    16:00 +30°C° 0 mm 5 mps 738 mmHg 15%
    17:00 +30°C° 0 mm 6 mps 738 mmHg 15%
    18:00 +29°C° 0 mm 7 mps 738 mmHg 18%
    19:00 +27°C° 0 mm 7 mps 739 mmHg 21%
    20:00 +24°C° 0 mm 8 mps 739 mmHg 24%
    21:00 +24°C° 0 mm 7 mps 740 mmHg 26%
    22:00 +23°C° 0 mm 7 mps 740 mmHg 27%
    23:00 +22°C° 0 mm 6 mps 740 mmHg 29%

    Day after tomorrow, 21 February, Friday

    Time Temperature Precipitation Wind Pressure Humidity
    00:00 +21°C° 0 mm 6 mps 740 mmHg 32%
    01:00 +20°C° 0 mm 5 mps 740 mmHg 34%
    02:00 +19°C° 0 mm 5 mps 740 mmHg 37%
    03:00 +19°C° 0 mm 5 mps 740 mmHg 39%
    04:00 +17°C° 0 mm 5 mps 740 mmHg 42%
    05:00 +16°C° 0 mm 5 mps 740 mmHg 45%
    06:00 +17°C° 0 mm 5 mps 740 mmHg 45%
    07:00 +17°C° 0 mm 5 mps 741 mmHg 45%
    08:00 +17°C° 0 mm 5 mps 742 mmHg 45%
    09:00 +21°C° 0 mm 5 mps 742 mmHg 38%
    10:00 +23°C° 0 mm 6 mps 742 mmHg 32%
    11:00 +26°C° 0 mm 6 mps 743 mmHg 26%
    18:00 +28°C° 0 mm 4 mps 741 mmHg 20%
    19:00 +26°C° 0 mm 4 mps 742 mmHg 23%
    20:00 +25°C° 0 mm 3 mps 742 mmHg 25%
    21:00 +24°C° 0 mm 3 mps 742 mmHg 28%
    22:00 +24°C° 0 mm 3 mps 742 mmHg 32%
    23:00 +22°C° 0 mm 3 mps 743 mmHg 36%

    22 February, Saturday

    Time Temperature Precipitation Wind Pressure Humidity
    00:00 +22°C° 0 mm 3 mps 742 mmHg 38%
    01:00 +21°C° 0 mm 3 mps 742 mmHg 40%
    02:00 +21°C° 0 mm 3 mps 742 mmHg 42%
    03:00 +20°C° 0 mm 3 mps 742 mmHg 44%
    04:00 +20°C° 0 mm 3 mps 742 mmHg 45%
    05:00 +20°C° 0 mm 4 mps 741 mmHg 46%
    06:00 +20°C° 0 mm 4 mps 742 mmHg 45%
    07:00 +20°C° 0 mm 4 mps 743 mmHg 44%
    08:00 +20°C° 0 mm 5 mps 743 mmHg 43%
    09:00 +23°C° 0 mm 5 mps 744 mmHg 37%
    10:00 +26°C° 0 mm 5 mps 744 mmHg 31%
    11:00 +28°C° 0 mm 5 mps 744 mmHg 26%
    12:00 +29°C° 0 mm 5 mps 743 mmHg 24%
    13:00 +30°C° 0 mm 5 mps 743 mmHg 22%
    14:00 +33°C° 0 mm 5 mps 742 mmHg 21%
    15:00 +32°C° 0 mm 6 mps 742 mmHg 21%
    16:00 +32°C° 0 mm 6 mps 742 mmHg 21%
    17:00 +32°C° 0 mm 6 mps 741 mmHg 21%
    18:00 +30°C° 0 mm 6 mps 742 mmHg 23%
    19:00 +28°C° 0 mm 5 mps 742 mmHg 26%
    20:00 +27°C° 0 mm 5 mps 743 mmHg 28%
    21:00 +26°C° 0 mm 5 mps 743 mmHg 30%
    22:00 +25°C° 0 mm 5 mps 743 mmHg 32%
    23:00 +25°C° 0 mm 5 mps 743 mmHg 34%

    23 February, Sunday

    Time Temperature Precipitation Wind Pressure Humidity
    00:00 +23°C° 0 mm 4 mps 742 mmHg 36%
    01:00 +23°C° 0 mm 4 mps 742 mmHg 39%
    02:00 +22°C° 0 mm 4 mps 742 mmHg 41%
    03:00 +22°C° 0 mm 4 mps 741 mmHg 42%
    04:00 +21°C° 0 mm 4 mps 741 mmHg 44%
    05:00 +21°C° 0 mm 4 mps 741 mmHg 45%
    06:00 +21°C° 0 mm 4 mps 742 mmHg 43%
    07:00 +21°C° 0 mm 4 mps 742 mmHg 42%
    08:00 +22°C° 0 mm 4 mps 743 mmHg 41%
    09:00 +25°C° 0 mm 5 mps 743 mmHg 35%
    10:00 +28°C° 0 mm 5 mps 743 mmHg 30%
    11:00 +30°C° 0 mm 6 mps 743 mmHg 25%
    12:00 +32°C° 0 mm 6 mps 743 mmHg 23%
    13:00 +32°C° 0 mm 6 mps 742 mmHg 21%
    14:00 +33°C° 0 mm 5 mps 741 mmHg 18%
    15:00 +33°C° 0 mm 5 mps 741 mmHg 18%
    16:00 +33°C° 0 mm 5 mps 741 mmHg 18%
    17:00 +33°C° 0 mm 5 mps 740 mmHg 17%
    18:00 +30°C° 0 mm 5 mps 741 mmHg 19%
    19:00 +29°C° 0 mm 5 mps 741 mmHg 21%
    20:00 +28°C° 0 mm 5 mps 741 mmHg 23%
    21:00 +27°C° 0 mm 5 mps 741 mmHg 24%
    22:00 +26°C° 0 mm 5 mps 741 mmHg 25%
    23:00 +26°C° 0 mm 4 mps 742 mmHg 27%

    24 February, Monday

    Time Temperature Precipitation Wind Pressure Humidity
    00:00 +25°C° 0 mm 4 mps 741 mmHg 28%
    01:00 +23°C° 0 mm 4 mps 741 mmHg 29%
    02:00 +24°C° 0 mm 3 mps 740 mmHg 31%
    03:00 +22°C° 0 mm 3 mps 740 mmHg 32%
    04:00 +21°C° 0 mm 2 mps 740 mmHg 33%
    05:00 +20°C° 0 mm 2 mps 740 mmHg 34%
    06:00 +21°C° 0 mm 2 mps 740 mmHg 33%
    07:00 +23°C° 0 mm 2 mps 741 mmHg 31%
    08:00 +24°C° 0 mm 2 mps 742 mmHg 29%
    09:00 +26°C° 0 mm 2 mps 742 mmHg 26%
    10:00 +28°C° 0 mm 3 mps 742 mmHg 23%
    11:00 +30°C° 0 mm 3 mps 742 mmHg 19%
    12:00 +31°C° 0 mm 3 mps 741 mmHg 18%
    13:00 +33°C° 0 mm 4 mps 741 mmHg 16%
    14:00 +33°C° 0 mm 4 mps 740 mmHg 14%
    15:00 +33°C° 0 mm 4 mps 739 mmHg 14%
    16:00 +33°C° 0 mm 4 mps 739 mmHg 14%
    17:00 +33°C° 0 mm 4 mps 738 mmHg 14%
    18:00 +30°C° 0 mm 3 mps 739 mmHg 16%
    19:00 +29°C° 0 mm 3 mps 739 mmHg 18%
    20:00 +27°C° 0 mm 2 mps 740 mmHg 19%
    21:00 +26°C° 0 mm 2 mps 740 mmHg 20%
    22:00 +26°C° 0 mm 2 mps 740 mmHg 20%
    23:00 +25°C° 0 mm 3 mps 740 mmHg 21%
    Show more